Terminal Aerodrome Forecast
Issued by NWS Topeka, KS

Home | Current Version | Previous Version | Text Only | Print | Product List | Glossary Off
Versions: 1 2 3 4 5 6 7 8 9 10 11 12 13 14

000
FTUS43 KTOP 150500
TAFTOP
TAF
KTOP 150520Z 1506/1606 VRB02KT P6SM SKC
     FM151900 19012G16KT P6SM SCT200=

USA.gov is the U.S. government's official web portal to all federal, state and local government web resources and services.